Weather History for Montague, CA

Change the Weather History Date:

Thursday, January 23, 2014

  Actual Average Record
Temperature  
Mean Temperature 46 °F 35 °F  
Max Temperature 63 °F 45 °F 63 °F (2014)
Min Temperature 28 °F 26 °F -5 °F (1962)
Degree Days  
Heating Degree Days 19 30  
Month to date heating degree days 723 690  
Since 1 July heating degree days 3201 2923  
Cooling Degree Days 0 0  
Month to date cooling degree days 0 0  
Year to date cooling degree days 0 0  
Moisture  
Dew Point 21 °F    
Average Humidity 39    
Maximum Humidity 64    
Minimum Humidity 17    
Precipitation  
Precipitation 0.00 in 0.04 in 0.93 in (1954)
Month to date precipitation 0.11 1.86  
Year to date precipitation 0.11 1.86  
Sea Level Pressure  
Sea Level Pressure 30.22 in    
Wind  
Wind Speed 10 mph (NNE)    
Max Wind Speed 22 mph    
Max Gust Speed 27 mph    
Visibility 10 miles    
Events      
T = Trace of Precipitation, MM = Missing Value Source: NWS Daily Summary

Daily Weather History Graph

Daily Weather History Graph

Search for Another Location

Airport:

Trip Planner

Search our weather history database for the weather conditions in past years. The results will help you decide how hot, cold, wet, or windy it might be!

Date:

Astronomy

Jan. 23, 2014 Rise Set
Actual Time 7:29 AM PST 5:14 PM PST
Civil Twilight 6:59 AM PST 5:44 PM PST
Nautical Twilight 6:25 AM PST 6:18 PM PST
Astronomical Twilight 5:52 AM PST 6:51 PM PST
Moon No Moon Rise 11:01 AM PST (1/23)
Length of Visible Light 10h 44m
Length of Day
9h 44m
Waning Gibbous, 54% of the Moon is Illuminated
Jan 23
Waning Gibbous
Jan 23
Last Quarter
Jan 30
New
Feb 6
First Quarter
Feb 14
Full

Hourly Weather History & Observations

Time (PST) Temp. Windchill Dew Point Humidity Pressure Visibility Wind Dir Wind Speed Gust Speed Precip Events Conditions
12:53 AM 41.0 °F 32.5 °F 23.0 °F 49% 30.20 in 10.0 mi North 17.3 mph - N/A   Clear
1:53 AM 35.1 °F 29.3 °F 21.0 °F 57% 30.21 in 10.0 mi NE 6.9 mph - N/A   Clear
2:53 AM 41.0 °F 38.0 °F 25.0 °F 53% 30.19 in 10.0 mi NNW 4.6 mph - N/A   Clear
3:53 AM 36.0 °F - 23.0 °F 59% 30.21 in 10.0 mi Calm Calm - N/A   Clear
4:53 AM 39.0 °F 29.9 °F 25.0 °F 57% 30.21 in 10.0 mi NNE 17.3 mph 24.2 mph N/A   Clear
5:53 AM 37.0 °F 28.9 °F 24.1 °F 59% 30.24 in 10.0 mi North 12.7 mph - N/A   Clear
6:53 AM 37.0 °F 28.1 °F 24.1 °F 59% 30.26 in 10.0 mi North 15.0 mph - N/A   Clear
7:53 AM 36.0 °F 26.3 °F 24.1 °F 62% 30.27 in 10.0 mi North 16.1 mph - N/A   Clear
8:53 AM 41.0 °F - 25.0 °F 53% 30.29 in 10.0 mi Calm Calm - N/A   Clear
9:53 AM 46.9 °F - 24.1 °F 41% 30.29 in 10.0 mi North 15.0 mph - N/A   Clear
10:53 AM 52.0 °F - 21.9 °F 31% 30.27 in 10.0 mi NNW 12.7 mph 20.7 mph N/A   Clear
11:53 AM 55.0 °F - 21.9 °F 28% 30.22 in 6.0 mi NNW 9.2 mph - N/A   Haze
12:53 PM 59.0 °F - 21.0 °F 23% 30.18 in 10.0 mi North 11.5 mph - N/A   Clear
1:53 PM 61.0 °F - 19.0 °F 20% 30.16 in 10.0 mi Calm Calm - N/A   Clear
2:53 PM 62.1 °F - 19.9 °F 20% 30.13 in 10.0 mi NE 9.2 mph - N/A   Clear
3:53 PM 62.1 °F - 18.0 °F 18% 30.13 in 10.0 mi East 15.0 mph - N/A   Clear
4:53 PM 55.9 °F - 19.0 °F 24% 30.14 in 10.0 mi NNE 9.2 mph - N/A   Clear
5:53 PM 51.1 °F - 18.0 °F 27% 30.17 in 10.0 mi Variable 5.8 mph - N/A   Clear
6:53 PM 50.0 °F - 19.0 °F 29% 30.20 in 10.0 mi Variable 5.8 mph - N/A   Clear
7:53 PM 50.0 °F - 19.9 °F 31% 30.24 in 10.0 mi Variable 5.8 mph - N/A   Clear
8:53 PM 48.0 °F - 19.9 °F 33% 30.26 in 10.0 mi ENE 4.6 mph - N/A   Clear
9:53 PM 46.9 °F - 21.0 °F 36% 30.27 in 10.0 mi North 18.4 mph - N/A   Clear
10:45 PM 45.0 °F 39.7 °F 19.9 °F 37% 30.26 in 10.0 mi North 10.4 mph - N/A   Clear
10:53 PM 46.0 °F 39.0 °F 19.9 °F 35% 30.30 in 10.0 mi NNW 17.3 mph 20.7 mph N/A   Clear
11:53 PM 45.0 °F 38.9 °F 19.9 °F 37% 30.30 in 10.0 mi NE 12.7 mph - N/A   Clear